Regional Weather Roundup
Issued by NWS Memphis, TN

Home | Current Version | Previous Version | Text Only | Print | Product List | Glossary On
Versions: 1 2 3 4 5 6 7 8 9 10 11 12 13 14 15 16 17 18 19 20 21 22 23 24 25 26 27 28 29 30 31 32 33 34 35 36 37 38 39 40 41 42 43 44 45 46 47 48 49 50
000
ASUS44 KMEG 240310
RWRMEG
MEMPHIS CWA HOURLY WEATHER ROUNDUP
NATIONAL WEATHER SERVICE MEMPHIS TN
900 PM CST THU FEB 23 2017

...WEST TENNESSEE...

CITY           SKY/WX    TMP DP  RH WIND       PRES   REMARKS
MEMPHIS INTL   PTCLDY    67  60  78 S13       29.67S
NWS MEMPHIS      N/A     65 N/A N/A MISG        N/A
JACKSON        CLEAR     65  58  78 S9        29.70R
BOLIVAR        CLEAR     64  57  77 S8        29.70S
SAVANNAH       CLEAR     64  57  77 S8G15     29.72F
UNION CITY     CLEAR     64  57  77 S13       29.66R
PARIS          CLEAR     63  54  72 S10       29.70S
HUNTINGDON     CLEAR     64  57  77 S10       29.70R


...EASTERN ARKANSAS...

CITY           SKY/WX    TMP DP  RH WIND       PRES   REMARKS
JONESBORO      CLEAR     63  55  75 S7        29.62S
WEST MEMPHIS   CLEAR     62  56  80 SE9       29.65R
BATESVILLE     PTCLDY    66  54  63 S6        29.62R
NEWPORT        CLEAR     63  56  78 MISG      29.61F
WALNUT RIDGE   PTCLDY    63  54  72 S10       29.60S
BLYTHEVILLE    CLEAR     66  58  75 S15       29.65S
SEARCY         CLEAR     65  58  78 S12       29.63S
STUTTGART      CLEAR     66  52  59 S12       29.65R
PINE BLUFF     CLEAR     66  56  70 S12       29.64R
MONTICELLO     CLEAR     67  56  67 S7        29.66R


...NORTH MISSISSIPPI...

CITY           SKY/WX    TMP DP  RH WIND       PRES   REMARKS
TUPELO         CLEAR     63  57  81 SE7       29.74R
OXFORD         CLEAR     61  57  88 SE12G18   29.74S
BATESVILLE     CLEAR     65  59  83 SE7       29.70F
TUNICA         CLEAR     63  55  77 SE9       29.67S
CORINTH        CLEAR     63  57  82 SE9       29.72S
GREENWOOD      CLEAR     66  55  67 S9        29.70R
COLUMBUS       CLEAR     58  57  97 SE8       29.75F
STARKVILLE     CLEAR     63  59  88 S8        29.77S
GOLDEN TRIANGL CLEAR     63  54  72 SE13      29.72F


...SOUTHEAST MISSOURI...

CITY           SKY/WX    TMP DP  RH WIND       PRES   REMARKS
KENNETT        CLEAR     63  57  82 S8        29.62R HAZE
MALDEN         CLEAR     64  55  72 S14       29.62S
WEST PLAINS    CLOUDY    65  57  75 S14       29.56S
POPLAR BLUFF   PTCLDY    67  56  67 S10       29.60S
CAPE GIRARDEAU MOCLDY    65  54  67 S10G20    29.61S


...NORTHWEST ALABAMA...

CITY           SKY/WX    TMP DP  RH WIND       PRES   REMARKS
MUSCLE SHOALS  CLEAR     62  54  74 SE7       29.79R


...MIDDLE TENNESSEE...

CITY           SKY/WX    TMP DP  RH WIND       PRES   REMARKS
NASHVILLE      PTCLDY    63  53  70 S8        29.76S
CLARKSVILLE    CLEAR     65  53  65 S7        29.72S
COLUMBIA       CLEAR     64  64 100 S6        29.75S


...WESTERN KENTUCKY...

CITY           SKY/WX    TMP DP  RH WIND       PRES   REMARKS
PADUCAH        PTCLDY    66  54  65 S14       29.63S
FORT CAMPBELL  CLEAR     66  55  68 S7        29.71S


...CENTRAL ARKANSAS...

CITY           SKY/WX    TMP DP  RH WIND       PRES   REMARKS
LITTLE ROCK    PTCLDY    64  56  75 S8        29.62S


SKY/WX REPORTED AS FAIR MEANS FEW OR NO CLOUDS BELOW
12 THOUSAND FEET.





USA.gov is the U.S. government's official web portal to all federal, state and local government web resources and services.